Yaogan Weixing 21

operational
NORAD ID: 40143 Int'l Des: 2014-053 Owner: ZZB Country: CN Constellation: yaogan
LEOCIRCULARRETROGRADESSO

Über Yaogan Weixing 21

Beschreibung wird geladen...

Live-Position

3D-Globus wird geladen...

Nächste Überflüge

Höhenverlauf

Altitude vs Time

uPlot chart will show altitude changes over time

Zweizeiliger Elementsatz

1 40143U 14053A 26061.18453227 .00007038 00000-0 28603-3 0 9992
2 40143 97.1638 106.0517 0010024 108.6935 251.5392 15.24802246638645
Epoch: 2. März 2026 • Age: 33 hours

Aktueller Status

Höhe 496.7 km
Geschwindigkeit 7.62 km/s
Subsatellitenpunkt 60.96°N, 157.31°E
Startdatum 8. Sept. 2014
Alter 11.4 years
Typ military

Technische Details

Klassifizierung Payload
Masse 3000.00 kg
Trockenmasse 3000.00 kg
Gesamtmasse 3000.00 kg
Länge 2.00 m
Durchmesser 2.00 m
Spannweite 8.00 m
Form Box + 2 Pan
Hersteller CAST
Bus-Typ JB-10
Phasenstatus In Orbit
Besitzer/Staat ZZB/CN

Große Konstellationen

Loading constellations...